Погода в Славянском

Россия / Калининградская область     54°50′18″N   20°58′40″E
темп.,
°C
ветер,
м/с
пор.,
м/с
влажн.,
%
обл.,
%
осадки,
мм/ч
давл.,
гПа
погр.,
м
9 марта, вт
вт923:00−3с38750 0.0 1022369
02:00−4с26723 0.0 1022276
05:00−3с116694 0.0 102258
08:00−3ююз006197 0.0 102367
11:00−1ююз1151100 0.0 1023553
14:000ю2243100 0.0 10231189
17:000ююз3446100 0.0 10221017
20:00−3ю336092 0.0 102282
10 марта, ср
ср1023:00−3ю366078 0.0 1022164
02:00−3ююз366750 0.0 1022194
05:00−3ююз35650 0.0 1021144
08:00−3ююз25640 0.0 1021150
11:00+1ююз35480 0.0 1022652
14:00+3юз34440 0.0 10211431
17:00+2зюз235112 0.0 1021540
20:00−1ю12666 0.0 102122
11 марта, чт
чт1123:00−1ю226594 0.0 102242
02:00−2ю357286 0.0 102196
05:00−2ююв37750 0.0 1020197
08:00−2ююв510669 0.0 1019328
11:00+2ю8114896 0.0 1017962
14:00+3ююв9134498 0.0 10141127
17:00+2ююв91546100 0.0 1010991
20:00+1ююв91755100 0.3 1007966
12 марта, пт
пт1223:000ю101796100 2.6 1003841
02:00+1ю81494100 5.3 1001473
05:00+2юз3899100 1.9 1000283
08:00+2зюз41098100 2.3 1000316
11:00+4з5993100 0.9 1001649
14:00+4зюз41090100 0.9 1004743
17:00+4з4108679 0.2 1005764
20:00+2юз379085 0.3 1007198
13 марта, сб
сб1323:00+1ююз41088100 0.0 1007232
02:00+1ююз4118982 0.0 1006273
05:00+1ю5138657 0.0 1004350
08:00+2ююз6148279 0.0 1003564
11:00+3ююз61292100 1.1 1003710
14:00+6зюз7117197 1.6 10041309
17:00+6юз597678 0.3 1004924
20:00+3ю5128478 0.3 1002289